Flag for Ireland Weather past 2 weeks in Letterkenny, Ireland

Now
53 °F

Cool.


Feels Like: 47 °F
Forecast: N/A
Wind: 22 mph from Southwest

Location: Castlederg

Current Time: Dec 21, 2014 at 5:32:01 PM

Latest Report: Dec 21, 2014 at 4:00 PM


Visibility: 4 mi

Pressure: 29.82 "Hg

Humidity: 98%

Dew point: 52 °F

Location of LetterkennyLocation

Historic Weather in Letterkenny — Graph

°F

Letterkenny temperature yesterday

Maximum temperature yesterday: 47 °F (at 12:00 PM)
Minimum temperature yesterday: 43 °F (at 10:00 AM)
Average temperature yesterday: 44 °F

Past Weeks' High & Low Weather Summary

 TemperatureHumidityPressure
High53 °F (Dec 18, 10:00 AM)100% (Dec 6, 5:00 PM)30.29 "Hg (Dec 6, 5:00 PM)
Low30 °F (Dec 12, 5:00 AM)66% (Dec 11, 5:00 AM)29.23 "Hg (Dec 12, 3:00 AM)
Average42 °F89%29.78 "Hg
* Reported Dec 6 4:00 PM — Dec 21 4:00 PM, Letterkenny, Weather by CustomWeather, © 2014

Note: Actual official high and low records may vary slightly from our data, if they occured in-between our weather recording intervals... More about our weather records

Advertising

Letterkenny weather history for previous 24 hours

 ConditionsComfort  
Time TempWeatherWind HumidityBarometerVisibility
4:00 PM
Dec 21
53 °FCool.22 mph98%29.82 "Hg4 mi
3:00 PM53 °FDrizzle. Cloudy.18 mph100%29.85 "Hg2 mi
2:00 PM52 °FRain. Cloudy.13 mph100%29.88 "Hg2 mi
1:00 PM52 °FDrizzle. Cloudy.15 mph99%29.90 "Hg2 mi
12:00 PM52 °FCool.23 mph92%29.93 "Hg31 mi
11:00 AM52 °FCool.18 mph93%29.95 "Hg31 mi
10:00 AM51 °FDrizzle. Cloudy.20 mph97%29.96 "Hg28 mi
9:00 AM50 °FDrizzle. Cloudy.21 mph99%29.98 "Hg2 mi
8:00 AM50 °FRain. Overcast.18 mph99%29.99 "Hg2 mi
7:00 AM49 °FDrizzle. Overcast.21 mph99%30.00 "Hg2 mi
6:00 AM49 °FLight freezing rain. Overcast.22 mph96%30.03 "Hg3 mi
5:00 AM48 °FCool.21 mph94%30.04 "Hg17 mi
4:00 AM47 °FSmoke.16 mph92%30.08 "Hg4 mi
3:00 AM46 °FCool.14 mph89%30.12 "Hg9 mi
2:00 AM46 °FCool.15 mph87%30.16 "Hg22 mi
1:00 AM45 °FCool.17 mph87%30.18 "Hg25 mi
12:00 AM44 °FQuite cool.17 mph89%30.19 "Hg25 mi
11:00 PM
Dec 20
44 °FQuite cool.18 mph90%30.21 "Hg28 mi
10:00 PM43 °FQuite cool.15 mph92%30.24 "Hg18 mi
9:00 PM43 °FQuite cool.9 mph89%30.27 "Hg25 mi
8:00 PM44 °FQuite cool.15 mph91%30.27 "Hg31 mi
7:00 PM44 °FQuite cool.14 mph93%30.28 "Hg28 mi
6:00 PM44 °FQuite cool.10 mph92%30.28 "Hg15 mi
5:00 PM44 °FDrizzle. Overcast.7 mph97%30.29 "Hg19 mi
Weather by CustomWeather, © 2014

See weather overviewHow to use our weather pages